IW1QLH-13 Weather Reports


time (UTC)temp
C
wind
direction
speed
KPH
gust
KPH
rain 1hr
cm
rain 24hr
cm
rain mn
cm
humidity
%
barometer
mb
20260503212218 -17 0.0 1.6 0.00 0.00 0.00 1010.7
20260503211045 -17 0.0 1.6 0.00 0.00 0.00 1010.6
20260503210016 -17 0.0 0.0 0.00 0.00 0.00 1010.6
20260503204805 -17 0.0 1.6 0.00 0.00 0.00 1010.8
20260503203736 -17 0.0 1.6 0.00 0.00 0.00 1010.8
20260503202706 -17 0.0 6.4 0.00 0.00 0.00 1010.6
20260503201636 -17 0.0 4.8 0.00 0.00 0.00 1010.9
20260503200606 -17 1.6 4.8 0.00 0.00 0.00 1010.6
20260503195536 -17 0.0 1.6 0.00 0.00 0.00 1010.7
20260503194506 -17 0.0 3.2 0.00 0.00 0.00 1010.5
20260503193437 -17 1.6 1.6 0.00 0.00 0.00 1010.4
20260503192404 -17 1.6 6.4 0.00 0.00 0.00 1010.3
20260503191335 -17 1.6 6.4 0.00 0.00 0.00 1010.2
20260503190306 -17 3.2 9.7 0.00 0.00 0.00 1010.0
20260503185237 -17 4.8 8.0 0.00 0.00 0.00 1009.9
20260503184207 -17 6.4 12.9 0.00 0.00 0.00 1010.0
20260503183128 -17 6.4 11.3 0.00 0.00 0.00 1009.9
20260503182059 -17 1.6 6.4 0.00 0.00 0.00 1010.0
20260503181029 -17 0.0 8.0 0.00 0.00 0.00 1010.1
20260503175959 -17 3.2 4.8 0.00 0.00 0.00 1010.1
20260503174930 -17 1.6 4.8 0.00 0.00 0.00 1010.1
20260503173900 -17 3.2 9.7 0.00 0.00 0.00 1010.1
20260503172830 -17 1.6 6.4 0.00 0.00 0.00 1010.2
20260503171800 -17 0.0 8.0 0.00 0.00 0.00 1010.3
20260503170726 -17 1.6 11.3 0.00 0.00 0.00 1010.3
20260503150129 -17 8.0 17.7 0.00 0.00 0.00 1010.8
20260503130555 -17 8.0 14.5 0.00 0.00 0.00 1011.8
20260503090416 -17 3.2 6.4 0.00 0.00 0.00 1012.9
20260503081143 -17 6.4 9.7 0.00 0.00 0.00 1012.9
20260503080111 -17 3.2 4.8 0.00 0.00 0.00 1012.9
20260503072942 -17 6.4 9.7 0.00 0.00 0.00 1012.4
20260503071912 -17 0.0 1.6 0.00 0.00 0.00 1012.6
20260503070842 -17 0.0 1.6 0.00 0.00 0.00 1012.6
20260503054435 -17 0.0 0.0 0.00 0.00 0.00 1012.5
20260503053403 -17 0.0 0.0 0.00 0.00 0.00 1012.5
20260503052334 -17 0.0 1.6 0.00 0.00 0.00 1012.4
20260503051304 -17 0.0 1.6 0.00 0.00 0.00 1012.4
20260503050235 -17 0.0 1.6 0.00 0.00 0.00 1012.4
20260503045205 -17 0.0 1.6 0.00 0.00 0.00 1012.4
20260503044131 -17 0.0 1.6 0.00 0.00 0.00 1012.4
20260503043102 -17 0.0 0.0 0.00 0.00 0.00 1012.4
20260503041723 -17 0.0 0.0 0.00 0.00 0.00 1012.3
20260503040654 -17 0.0 1.6 0.00 0.00 0.00 1012.3
20260503035626 -17 0.0 0.0 0.00 0.00 0.00 1012.4
20260503034557 -17 0.0 0.0 0.00 0.00 0.00 1012.4
20260503033528 -17 0.0 0.0 0.00 0.00 0.00 1012.4
20260503032458 -17 0.0 1.6 0.00 0.00 0.00 1012.3
20260503031426 -17 0.0 0.0 0.00 0.00 0.00 1012.4
20260503030357 -17 0.0 0.0 0.00 0.00 0.00 1012.5
20260503025325 -17 0.0 1.6 0.00 0.00 0.00 1012.4
20260503024257 -17 0.0 0.0 0.00 0.00 0.00 1012.5
20260503023217 -17 0.0 1.6 0.00 0.00 0.00 1012.6
20260503022147 -17 0.0 0.0 0.00 0.00 0.00 1012.6
20260503021117 -17 0.0 1.6 0.00 0.00 0.00 1012.5
20260503015943 -17 0.0 0.0 0.00 0.00 0.00 1012.6
20260503014915 -17 0.0 1.6 0.00 0.00 0.00 1012.7
20260503013742 -17 0.0 0.0 0.00 0.00 0.00 1012.7
20260503012712 -17 0.0 1.6 0.00 0.00 0.00 1012.7
20260503011642 -17 1.6 1.6 0.00 0.00 0.00 1012.8
20260503010613 -17 0.0 0.0 0.00 0.00 0.00 1012.7
20260503005132 -17 0.0 1.6 0.00 0.00 0.00 1012.6
20260503004103 -17 1.6 1.6 0.00 0.00 0.00 1012.8
20260503003034 -17 0.0 1.6 0.00 0.00 0.00 1012.9
20260503002005 -17 0.0 0.0 0.00 0.00 0.00 1013.2
20260503000928 -17 0.0 1.6 0.00 0.00 0.00 1013.2
20260502235857 -17 0.0 1.6 0.00 0.00 0.00 1013.2
20260502234829 -17 0.0 1.6 0.00 0.00 0.00 1013.1
20260502233757 -17 0.0 0.0 0.00 0.00 0.00 1013.2
20260502232625 -17 0.0 0.0 0.00 0.00 0.00 1013.3
20260502231556 -17 0.0 1.6 0.00 0.00 0.00 1013.4
20260502230527 -17 0.0 1.6 0.00 0.00 0.00 1013.5
20260502225457 -17 0.0 1.6 0.00 0.00 0.00 1013.6
20260502224428 -17 0.0 0.0 0.00 0.00 0.00 1013.6
20260502223355 -17 0.0 0.0 0.00 0.00 0.00 1013.6
20260502222326 -17 0.0 1.6 0.00 0.00 0.00 1013.6
20260502221250 -17 0.0 1.6 0.00 0.00 0.00 1013.7
20260502220218 -17 0.0 0.0 0.00 0.00 0.00 1013.7
20260502215147 -17 0.0 0.0 0.00 0.00 0.00 1013.7
20260502214115 -17 0.0 0.0 0.00 0.00 0.00 1013.7
20260502213042 -17 0.0 0.0 0.00 0.00 0.00 1013.8